カタログに戻る

DELTA 1 DEB

運用中PO
NORAD 12227·DEBRIS·🇺🇸 United States

打ち上げ Mar 5, 1978 から Vandenberg Space Force Base

Loading…

次のパス (今後24時間)

TLE

最新Source: Space-Track

元期: Sep 14, 2026, 01:27 UTC

1 12227U 78026BU  26257.06074630  .00003230  00000-0  26964-3 0  9993
2 12227  98.7837 106.5644 0063249 274.2539  85.1454 14.97911259413205

AllMySatでDELTA 1 DEBをリアルタイム追跡

Download on the App Store